Location: Caltech
(34.1382°N, 118.1253°W)
Time: 19:01:53
(UTC-07:00)

Transit 2A - Visible Passes

Search period start: 20 April 2014 00:00
Search period end: 30 April 2014 00:00
Orbit: 600 x 963 km, 66.7° (Epoch: 20 April)

Date Brightness Start Highest point End Pass type
(mag) Time Alt. Az. Time Alt. Az. Time Alt. Az.
20 Apr 8.7 02:03:44 13° NNW 02:03:44 13° NNW 02:04:36 10° N visible
21 Apr 8.8 01:30:51 14° N 01:30:51 14° N 01:31:42 10° N visible
22 Apr 8.8 00:57:56 14° N 00:57:56 14° N 00:58:38 10° N visible
23 Apr 8.8 00:24:57 13° NNE 00:24:57 13° NNE 00:25:25 10° NNE visible
23 Apr 8.8 23:51:54 11° NNE 23:51:54 11° NNE 23:52:05 10° NNE visible
24 Apr 8.9 01:32:24 10° NNW 01:32:24 10° NNW 01:32:34 10° NNW visible
25 Apr 8.8 00:59:16 13° NNW 00:59:16 13° NNW 01:00:19 10° N visible
26 Apr 8.6 00:26:02 17° NNW 00:26:02 17° NNW 00:27:32 10° N visible
26 Apr 8.3 23:52:40 20° N 23:52:40 20° N 23:54:32 10° N visible
27 Apr 8.0 23:19:07 25° N 23:19:07 25° N 23:21:22 10° NNE visible
28 Apr 7.5 22:45:18 32° NNE 22:45:18 32° NNE 22:48:04 10° NNE visible
29 Apr 8.9 00:25:58 10° NW 00:26:36 10° NW 00:27:12 10° NW visible
29 Apr 6.7 22:11:00 45° NE 22:11:00 45° NE 22:14:39 10° NNE visible
29 Apr 8.6 23:51:22 14° WNW 23:52:54 15° NW 23:55:54 10° NNW visible
